Flag for Germany Weather past 2 weeks in Reutlingen, Baden-Württemberg, Germany

Now
72 °F

Sunny.


Feels Like: 74 °F
Forecast: 58 / 75 °F
Wind: 2 mph from North

Location: Stuttgart-Echterdingen

Current Time: Aug 2, 2014 at 12:00:36 PM

Latest Report: Aug 2, 2014 at 11:20 AM


Visibility: 10 mi

Pressure: 29.83 "Hg

Humidity: 73%

Dew point: 63 °F

Location of ReutlingenLocation

Historic Weather in Reutlingen — Graph

°F

Reutlingen temperature yesterday

Maximum temperature yesterday: 77 °F (at 4:20 PM)
Minimum temperature yesterday: 57 °F (at 5:20 AM)
Average temperature yesterday: 67 °F

Past Weeks' High & Low Weather Summary

 TemperatureHumidityPressure
High91 °F (Jul 19, 3:50 PM)100% (Jul 20, 11:50 PM)30.12 "Hg (Jul 20, 11:50 PM)
Low57 °F (Aug 1, 5:20 AM)22% (Jul 18, 2:50 PM)29.77 "Hg (Jul 28, 6:20 PM)
Average69 °F74%29.92 "Hg
* Reported Jul 18 10:20 AM — Aug 2 10:50 AM, Reutlingen, Weather by CustomWeather, © 2014

Note: Actual official high and low records may vary slightly from our data, if they occured in-between our weather recording intervals... More about our weather records

Advertising

Reutlingen weather history for previous 24 hours

 ConditionsComfort  
Time TempWeatherWind HumidityBarometerVisibility
10:50 AM
Aug 2
70 °FSunny.1 mph78%29.83 "Hg10 mi
10:20 AM68 °FSunny.1 mph83%29.83 "Hg10 mi
9:50 AM66 °FSunny.2 mph88%29.83 "Hg10 mi
9:20 AM66 °FSunny.2 mph88%29.83 "Hg10 mi
8:50 AM64 °FSunny.2 mph88%29.83 "Hg10 mi
8:20 AM64 °FSunny.2 mph88%29.83 "Hg10 mi
7:50 AM63 °FSunny.2 mph88%29.80 "Hg10 mi
7:20 AM61 °FFog.1 mph94%29.80 "HgN/A
6:50 AM59 °FFog.1 mph94%29.80 "HgN/A
6:20 AM57 °FFog.2 mph94%29.80 "HgN/A
5:50 AM57 °FFog.1 mph94%29.80 "HgN/A
5:20 AM57 °FClear.2 mph94%29.83 "Hg10 mi
4:50 AM59 °FClear.1 mph88%29.80 "Hg10 mi
4:20 AM59 °FClear.1 mph94%29.83 "Hg10 mi
3:50 AM59 °FClear.1 mph94%29.83 "Hg10 mi
3:20 AM61 °FClear.1 mph88%29.83 "Hg10 mi
2:50 AM63 °FClear.2 mph83%29.83 "Hg10 mi
2:20 AM61 °FClear.2 mph88%29.83 "Hg10 mi
1:50 AM63 °FClear.3 mph83%29.83 "Hg10 mi
1:20 AM63 °FClear.2 mph83%29.83 "Hg10 mi
12:50 AM63 °FClear.2 mph83%29.86 "Hg10 mi
12:20 AM63 °FClear.2 mph83%29.86 "Hg10 mi
11:50 PM
Aug 1
64 °FClear.2 mph78%29.86 "Hg10 mi
11:20 PM66 °FClear.1 mph78%29.86 "Hg10 mi
10:50 PM64 °FClear.2 mph83%29.86 "Hg10 mi
10:20 PM68 °FClear.1 mph69%29.86 "Hg10 mi
9:50 PM68 °FSunny.1 mph69%29.86 "Hg10 mi
9:20 PM70 °FSunny.5 mph64%29.86 "Hg10 mi
8:50 PM70 °FSunny.6 mph64%29.86 "Hg10 mi
8:20 PM72 °FSunny.7 mph65%29.86 "Hg10 mi
7:50 PM73 °FPassing clouds.6 mph61%29.86 "HgN/A
7:20 PM75 °FPassing clouds.5 mph54%29.86 "HgN/A
6:50 PM75 °FPassing clouds.6 mph54%29.86 "HgN/A
6:20 PM73 °FPassing clouds.7 mph57%29.86 "HgN/A
5:50 PM75 °FPassing clouds.7 mph54%29.86 "HgN/A
5:20 PM75 °FPassing clouds.5 mph54%29.86 "HgN/A
4:50 PM75 °FScattered clouds.7 mph54%29.86 "HgN/A
4:20 PM77 °FScattered clouds.8 mph51%29.86 "HgN/A
3:50 PM75 °FPartly sunny.7 mph54%29.89 "HgN/A
3:20 PM73 °FPartly sunny.5 mph57%29.89 "HgN/A
2:50 PM73 °FPartly sunny.5 mph61%29.89 "HgN/A
2:20 PM73 °FPartly sunny.5 mph65%29.89 "HgN/A
1:50 PM73 °FPartly sunny.3 mph57%29.89 "HgN/A
1:20 PM73 °FPartly sunny.5 mph65%29.89 "HgN/A
12:50 PM73 °FPartly sunny.5 mph57%29.92 "HgN/A
12:20 PM72 °FPartly sunny.6 mph65%29.92 "HgN/A
Weather by CustomWeather, © 2014

See weather overviewHow to use our weather pages